Regional Weather Roundup
Issued by NWS

Home | Current Version | Previous Version | Graphics & Text | Print | Product List | Glossary On
Versions: 1 2 3 4 5 6 7 8 9 10 11 12 13 14 15 16 17 18 19 20 21 22 23 24 25 26 27 28 29 30 31 32 33 34 35 36 37 38 39 40 41 42 43 44 45 46 47 48 49 50
000
ASUS44 KMEG 250210
RWRTN
TENNESSEE HOURLY STATE WEATHER ROUNDUP
NATIONAL WEATHER SERVICE MEMPHIS TN
900 PM CDT MON JUL 24 2017

TNZ002-004-019-021-049-052-054-088>092-250300-
WEST TENNESSEE

CITY           SKY/WX    TMP DP  RH WIND       PRES   REMARKS
MEMPHIS INTL   PTCLDY    84  76  76 S5        29.98R HX  93
NWS MEMPHIS      N/A     83 N/A N/A MISG        N/A
JACKSON        CLEAR     81  79  94 CALM      29.98R HX  90
SOMERVILLE       N/A     81  77  89 CALM      29.98R
COVINGTON      PTCLDY    81  77  89 CALM      29.97R
UNION CITY       N/A     79  77  94 CALM      29.96R
BOLIVAR        CLEAR     82  72  69 VRB6      29.98R
PARIS          CLEAR     77  75  94 CALM      29.98R
HUNTINGDON     CLEAR     79  77  94 CALM      29.97R
LEXINGTON      PTCLDY    81  77  89 CALM      29.98R
SELMER         CLEAR     75  68  78 CALM      29.99R
SAVANNAH       CLEAR     75  72  88 MISG      29.98S
$$

TNZ008-025-027-028-033-062-065-066-250300-
NORTH MIDDLE TENNESSEE

CITY           SKY/WX    TMP DP  RH WIND       PRES   REMARKS
NASHVILLE      CLOUDY    86  74  67 E3        29.99R HX  94
PORTLAND         N/A     79  73  83 CALM      29.99R
CLARKSVILLE    PTCLDY    83  73  72 CALM      29.98R
SMYRNA         PTCLDY    83  74  74 CALM      29.99R
COOKEVILLE     CLEAR     73  70  88 CALM      30.01R
GALLATIN       PTCLDY    82  75  78 CALM      30.01R
CROSSVILLE     PTCLDY    72  68  87 CALM      30.07R
$$

TNZ061-075-076-078-094-096-097-250300-
SOUTH MIDDLE TENNESSEE

CITY           SKY/WX    TMP DP  RH WIND       PRES   REMARKS
FAYETTEVILLE   CLEAR     77  72  83 CALM      30.02R
TULLAHOMA      CLEAR     79  72  78 SW5       30.04R
WINCHESTER     CLEAR     79  72  78 W5        30.03R
MCMINNVILLE    CLEAR     79  75  89 CALM      30.02R
COLUMBIA       PTCLDY    81  72  74 S6        29.98R
SHELBYVILLE    CLEAR     77  75  94 CALM      30.00R
$$

TNZ017-018-042-046-047-250300-
NORTHEAST TENNESSEE

CITY           SKY/WX    TMP DP  RH WIND       PRES   REMARKS
TRI CITIES     CLOUDY    76  67  73 CALM      30.04R
ELIZABETHTON   CLOUDY    72  68  88 CALM      30.05R
$$

TNZ012-013-036-069-073-074-250300-
CENTRAL EAST TENNESSEE

CITY           SKY/WX    TMP DP  RH WIND       PRES   REMARKS
KNOXVILLE      CLOUDY    82  66  58 SW3       29.99R
OAK RIDGE      PTCLDY    79  70  74 CALM      30.02R
DOWNTOWN KNOXV CLEAR     75  72  88 CALM      29.99R
GATLINBURG     CLEAR     75  70  83 CALM      30.00R
MORRISTOWN     CLEAR     77  70  78 CALM      30.02R
JACKSBORO      CLEAR     73  72  94 CALM      30.05R
$$

TNZ083-085-099-250300-
SOUTHEAST TENNESSEE

CITY           SKY/WX    TMP DP  RH WIND       PRES   REMARKS
CHATTANOOGA    CLOUDY    84  72  67 S3        29.99R
DAYTON         CLEAR     77  77 100 CALM      29.98R
$$

SKY/WX REPORTED AS FAIR MEANS FEW OR NO CLOUDS BELOW
12 THOUSAND FEET.





USA.gov is the U.S. government's official web portal to all federal, state and local government web resources and services.